Regional Weather Roundup
Issued by NWS

Home | Current Version | Previous Version | Text Only | Print | Product List | Glossary Off
Versions: 1 2 3 4 5 6 7 8 9 10 11 12 13 14 15 16 17 18 19 20 21 22 23 24 25 26 27 28 29 30 31 32 33 34 35 36 37 38 39 40 41 42 43 44 45 46 47 48 49 50

624
ASUS45 KPSR 211610
RWRAZ

ARIZONA HOURLY REGIONAL WEATHER ROUNDUP
NATIONAL WEATHER SERVICE PHOENIX AZ
900 AM MST SAT APR 21 2018

NOTE: FAIR INDICATES FEW OR NO CLOUDS BELOW 12,000 FEET WITH NO
SIGNIFICANT WEATHER AND/OR OBSTRUCTIONS TO VISIBILITY.

AZZ001>003-036-211700-
NORTHWEST ARIZONA

CITY           SKY/WX    TMP DP  RH WIND       PRES   REMARKS
BULLHEAD CITY  SUNNY     73  34  23 CALM      30.07S
KINGMAN        SUNNY     67  25  20 N5        30.16F
$$

AZZ004>008-015-016-018-211700-
NORTH CENTRAL ARIZONA

CITY           SKY/WX    TMP DP  RH WIND       PRES   REMARKS
GRAND CANYON   SUNNY     49  31  49 SW3       30.26R
WILLIAMS       SUNNY     52  25  35 N13       30.24F
PRESCOTT       SUNNY     56  26  31 N6        30.22R
FLAGSTAFF      SUNNY     52  27  38 NW9       30.24S
PAYSON         SUNNY     59  27  29 VRB7      30.18S
PAGE           SUNNY     52  35  52 S5        30.17S
$$

AZZ009>014-017-211700-
NORTHEAST ARIZONA

CITY           SKY/WX    TMP DP  RH WIND       PRES   REMARKS
WINSLOW        SUNNY     47  37  68 CALM      30.22R
SAINT JOHNS    SUNNY     51  35  54 W13       30.20S
WINDOW ROCK    SUNNY     49  36  61 N15G24    30.17S
SHOW LOW       SUNNY     48  32  53 NW8       30.24F
$$

AZZ540-542>544-546-548-211700-
GREATER PHOENIX AREA

CITY           SKY/WX    TMP DP  RH WIND       PRES   REMARKS
PHOENIX        MOSUNNY   71  34  25 SE8       30.06S
BUCKEYE        SUNNY     72  34  25 E12       30.08R
GLENDALE       MOSUNNY   70  36  28 CALM      30.09S
LUKE AFB       SUNNY     69  33  26 CALM      30.06S
DEER VALLEY    SUNNY     68  32  26 S5        30.07S
SCOTTSDALE     SUNNY     70  36  28 S7        30.08F
MESA-FALCON    SUNNY     70  32  24 NE5       30.09S
MESA-GATEWAY   SUNNY     70  30  23 SE3       30.10S
CHANDLER       SUNNY     68  32  26 CALM      30.08F
$$

AZZ539-553-211700-
SOUTHWEST MARICOPA COUNTY AND PINAL COUNTY

CITY           SKY/WX    TMP DP  RH WIND       PRES   REMARKS
CASA GRANDE    SUNNY     67  29  24 CALM      30.10S
GILA BEND      FAIR      71  26  18 NE5       30.05F
$$

AZZ503-504-507>509-211700-
SOUTHEAST ARIZONA

CITY           SKY/WX    TMP DP  RH WIND       PRES   REMARKS
TUCSON         MOSUNNY   65  27  23 S3        30.13S
DAVIS-MONTHAN  SUNNY     67  28  23 CALM      30.11S
RYAN FIELD     SUNNY     64  28  25 SE6       30.13R
NOGALES        MOSUNNY   67  26  21 NE13G18   30.12S
SIERRA VISTA   MOSUNNY   60  21  22 NE6       30.19R
DOUGLAS        SUNNY     59  26  28 NW7       30.17R
SAFFORD        SUNNY     62  27  26 CALM      30.12F
$$

AZZ532-211700-
SOUTHWEST ARIZONA

CITY           SKY/WX    TMP DP  RH WIND       PRES   REMARKS
YUMA           SUNNY     73  40  30 NE6       30.03S
$$

CAZ041-043-047-048-061-525>527-560>570-211700-
SOUTHERN CALIFORNIA

CITY           SKY/WX    TMP DP  RH WIND       PRES   REMARKS
DOWNTOWN L.A.  SUNNY     65  50  58 CALM      30.06F
L.A. AIRPORT   MOSUNNY   65  51  60 NE6       30.07F
SAN DIEGO      MOSUNNY   66  50  56 W5        30.06S
BURBANK        SUNNY     65  45  48 W6        30.07F
ONTARIO        MOSUNNY   64  44  48 CALM      30.08S
RIVERSIDE      SUNNY     63  45  51 CALM      30.08S
PALM SPRINGS   SUNNY     76  35  22 CALM      30.05R
EL CENTRO NAS  MOSUNNY   76  33  21 NW6       30.03S
IMPERIAL       SUNNY     74  43  32 N3        30.02R
BLYTHE         SUNNY     72  33  24 CALM      30.05S
NEEDLES        SUNNY     76  25  15 CALM      30.08S
$$

NVZ020-UTZ003-211700-
SOUTHERN NEVADA-UTAH

CITY           SKY/WX    TMP DP  RH WIND       PRES   REMARKS
LAS VEGAS      SUNNY     69  31  24 CALM      30.14R
SALT LAKE CITY MOSUNNY   56  35  45 SE6       30.20R
$$

NMZ009-TXZ055-211700-
NEW MEXICO-WEST TEXAS

CITY           SKY/WX    TMP DP  RH WIND       PRES   REMARKS
ALBUQUERQUE    PTSUNNY   44  29  55 CALM      30.14F
EL PASO        MOSUNNY   62  24  23 NW8       30.10F
$$


........................KEY........................
SKY/WX - SKY CONDITION/WEATHER
TMP    - TEMPERATURE IN FAHRENHEIT
DP     - DEW POINT IN FAHRENHEIT
RH     - RELATIVE HUMIDITY IN PERCENT
WIND   - DIRECTION AND SPEED IN MILES PER HOUR (MPH)
VRB    - VARIABLE WIND DIRECTION
PRES   - MEAN SEA LEVEL PRESSURE IN INCHES OF MERCURY
         F - FALLING PRESSURE   R - RISING PRESSURE
         S - STEADY PRESSURE
VSB    - VISIBILITY IN MILES
HX     - HEAT INDEX IN FAHRENHEIT
WCI    - WIND CHILL INDEX IN FAHRENHEIT
TC     - TEMPERATURE IN CELSIUS WHICH IS ALSO KNOWN AS
         TEMPERATURE IN CENTIGRADE
AFB    - AIR FORCE BASE
         LUKE AFB IS LUKE AIR FORCE BASE
         DAVIS-MONTHAN IS DAVIS-MONTHAN AIR FORCE BASE
NAS    - NAVAL AIR STATION
         EL CENTRO NAS IS EL CENTRO NAVAL AIR STATION
N/A    - NOT AVAILABLE





USA.gov is the U.S. government's official web portal to all federal, state and local government web resources and services.